TimeCDT,TemperatureF,Dew PointF,Humidity,Sea Level PressureIn,VisibilityMPH,Wind Direction,Wind SpeedMPH,Gust SpeedMPH,PrecipitationIn,Events,Conditions,WindDirDegrees,DateUTC
12:10 AM,39.2,37.4,93,29.95,1.2,Calm,Calm,-,N/A,,Clear,0,2012-10-03 05:10:00
12:14 AM,41.0,37.4,87,29.95,0.8,Calm,Calm,-,N/A,,Mist,0,2012-10-03 05:14:00
12:27 AM,39.2,37.4,93,29.95,0.5,Calm,Calm,-,N/A,Fog,Fog,0,2012-10-03 05:27:00
12:33 AM,39.2,39.2,100,29.94,3.0,Calm,Calm,-,N/A,,Clear,0,2012-10-03 05:33:00
12:54 AM,39.9,39.0,97,29.96,10.0,Calm,Calm,-,N/A,,Clear,0,2012-10-03 05:54:00
1:17 AM,39.2,37.4,93,29.95,6.0,Calm,Calm,-,N/A,,Scattered Clouds,0,2012-10-03 06:17:00
1:21 AM,39.2,37.4,93,29.95,2.0,Calm,Calm,-,N/A,,Mostly Cloudy,0,2012-10-03 06:21:00
1:28 AM,39.2,37.4,93,29.95,1.0,Calm,Calm,-,N/A,,Mist,0,2012-10-03 06:28:00
1:36 AM,39.2,39.2,100,29.95,4.0,Calm,Calm,-,N/A,,Overcast,0,2012-10-03 06:36:00
1:47 AM,39.2,37.4,93,29.95,1.5,Calm,Calm,-,N/A,,Overcast,0,2012-10-03 06:47:00
1:54 AM,37.9,37.0,97,29.98,0.2,NNW,3.5,-,N/A,Fog,Fog,330,2012-10-03 06:54:00
2:00 AM,37.4,37.4,100,29.96,0.5,NW,3.5,-,N/A,Fog,Fog,320,2012-10-03 07:00:00
2:11 AM,39.2,39.2,100,29.96,1.0,Calm,Calm,-,N/A,,Mist,0,2012-10-03 07:11:00
2:16 AM,39.2,37.4,93,29.96,3.0,Calm,Calm,-,N/A,,Overcast,0,2012-10-03 07:16:00
2:21 AM,39.2,37.4,93,29.96,1.2,Calm,Calm,-,N/A,,Overcast,0,2012-10-03 07:21:00
2:26 AM,39.2,37.4,93,29.96,0.2,Calm,Calm,-,N/A,Fog,Fog,0,2012-10-03 07:26:00
2:45 AM,37.4,37.4,100,29.96,0.8,Calm,Calm,-,N/A,,Mist,0,2012-10-03 07:45:00
2:54 AM,37.9,37.0,97,29.98,0.8,Calm,Calm,-,N/A,,Mist,0,2012-10-03 07:54:00
3:23 AM,37.4,37.4,100,29.97,0.2,Calm,Calm,-,N/A,Fog,Fog,0,2012-10-03 08:23:00
4:27 AM,37.4,37.4,100,29.97,0.5,Calm,Calm,-,N/A,Fog,Fog,0,2012-10-03 09:27:00
4:37 AM,37.4,37.4,100,29.97,0.2,Calm,Calm,-,N/A,Fog,Fog,0,2012-10-03 09:37:00
4:54 AM,37.0,37.0,100,29.99,0.2,NNW,3.5,-,N/A,Fog,Fog,340,2012-10-03 09:54:00
5:15 AM,37.4,35.6,93,29.97,1.0,Calm,Calm,-,N/A,,Mist,0,2012-10-03 10:15:00
5:37 AM,37.4,37.4,100,29.98,3.0,Calm,Calm,-,N/A,,Overcast,0,2012-10-03 10:37:00
5:52 AM,39.2,37.4,93,29.98,1.5,Calm,Calm,-,N/A,,Overcast,0,2012-10-03 10:52:00
5:54 AM,39.0,37.9,96,29.99,1.2,Calm,Calm,-,N/A,,Overcast,0,2012-10-03 10:54:00
5:57 AM,39.2,39.2,100,29.98,0.8,Calm,Calm,-,N/A,,Mist,0,2012-10-03 10:57:00
6:21 AM,39.2,39.2,100,29.98,0.2,Calm,Calm,-,N/A,Fog,Fog,0,2012-10-03 11:21:00
6:54 AM,41.0,39.9,96,30.01,0.2,Calm,Calm,-,N/A,Fog,Fog,0,2012-10-03 11:54:00
7:33 AM,41.0,41.0,100,29.98,0.2,Calm,Calm,-,N/A,Fog,Fog,0,2012-10-03 12:33:00
7:54 AM,42.1,41.0,96,30.01,0.2,Calm,Calm,-,N/A,Fog,Fog,0,2012-10-03 12:54:00
8:54 AM,44.1,44.1,100,30.00,0.2,NNW,3.5,-,N/A,Fog,Fog,330,2012-10-03 13:54:00
9:10 AM,44.6,44.6,100,29.98,0.2,Calm,Calm,-,N/A,Fog,Fog,0,2012-10-03 14:10:00
9:33 AM,46.4,44.6,93,29.99,0.5,Calm,Calm,-,N/A,Fog,Fog,0,2012-10-03 14:33:00
9:54 AM,46.9,46.0,97,30.02,0.2,NW,3.5,-,N/A,Fog,Fog,320,2012-10-03 14:54:00
10:08 AM,48.2,46.4,93,29.99,1.0,Calm,Calm,-,N/A,,Mist,0,2012-10-03 15:08:00
10:11 AM,48.2,46.4,93,29.99,2.0,Calm,Calm,-,N/A,,Overcast,0,2012-10-03 15:11:00
10:19 AM,48.2,46.4,93,29.99,10.0,Calm,Calm,-,N/A,,Overcast,0,2012-10-03 15:19:00
10:54 AM,53.1,48.9,86,30.01,10.0,Calm,Calm,-,N/A,,Clear,0,2012-10-03 15:54:00
11:54 AM,64.0,50.0,60,29.99,10.0,ESE,3.5,-,N/A,,Clear,110,2012-10-03 16:54:00
12:54 PM,69.1,46.0,44,29.97,10.0,Variable,4.6,-,N/A,,Clear,0,2012-10-03 17:54:00
1:54 PM,70.0,45.0,41,29.96,10.0,Variable,4.6,-,N/A,,Clear,0,2012-10-03 18:54:00
3:54 PM,71.1,39.9,32,29.94,10.0,ESE,5.8,-,N/A,,Clear,120,2012-10-03 20:54:00
4:54 PM,70.0,42.1,36,29.95,10.0,SSE,10.4,-,N/A,,Clear,150,2012-10-03 21:54:00
5:54 PM,66.9,45.0,45,29.96,10.0,SSE,5.8,-,N/A,,Clear,150,2012-10-03 22:54:00
6:54 PM,59.0,45.0,60,29.97,10.0,SE,4.6,-,N/A,,Clear,130,2012-10-03 23:54:00
7:54 PM,57.0,48.0,72,29.98,10.0,SE,4.6,-,N/A,,Clear,140,2012-10-04 00:54:00
8:54 PM,55.0,48.9,80,29.99,10.0,SE,3.5,-,N/A,,Clear,140,2012-10-04 01:54:00
9:54 PM,53.1,48.9,86,29.99,10.0,Calm,Calm,-,N/A,,Clear,0,2012-10-04 02:54:00
10:54 PM,48.0,46.9,96,30.00,5.0,Calm,Calm,-,N/A,,Clear,0,2012-10-04 03:54:00
11:08 PM,46.4,44.6,93,29.98,1.5,Calm,Calm,-,N/A,,Clear,0,2012-10-04 04:08:00
11:20 PM,44.6,44.6,100,29.98,0.2,Calm,Calm,-,N/A,Fog,Fog,0,2012-10-04 04:20:00
11:29 PM,46.4,44.6,93,29.98,1.0,Calm,Calm,-,N/A,,Clear,0,2012-10-04 04:29:00
11:37 PM,46.4,44.6,93,29.98,3.0,Calm,Calm,-,N/A,,Clear,0,2012-10-04 04:37:00
11:39 PM,44.6,44.6,100,29.98,1.5,Calm,Calm,-,N/A,,Clear,0,2012-10-04 04:39:00
11:54 PM,46.0,44.1,93,29.99,1.5,Calm,Calm,-,N/A,,Clear,0,2012-10-04 04:54:00